DateTimeUTC,F1_A11,F1_S11,BsB_S11,BsG_S11,BsR_S11,BbsB_S11,BbsG_S11,BbsR_S11,BaB_A11,BaG_A11,BaR_A11,Tu_S11,T_S11,Uu_S11,U_S11,P_S11,T1_A11
2021-08-06T06:00:00Z,00000200,20000000,,,,,,,0000.01,0000.24,-000.27,18.2,25.0,02.3,01.5,0667.8,30.9
2021-08-06T06:01:00Z,00000200,20000000,,,,,,,-000.10,-000.04,0000.16,18.2,25.0,02.3,01.5,0667.8,31.0
2021-08-06T06:02:00Z,00000200,20000000,,,,,,,-000.41,-000.42,-000.13,18.2,25.0,02.3,01.5,0667.8,30.9
2021-08-06T06:03:00Z,00000200,60000000,,,,,,,0001.27,0000.94,0000.64,18.2,25.0,02.3,01.5,0667.8,30.9
2021-08-06T06:04:00Z,00000200,40000000,0005.26,0003.62,0002.19,0000.56,0000.44,0000.31,0001.06,0000.75,0000.79,18.2,24.8,02.4,01.6,0668.7,30.9
2021-08-06T06:05:00Z,00000200,00000000,0006.01,0004.14,0002.53,0000.24,0000.46,0000.17,0001.20,0001.48,0001.19,18.2,24.7,02.5,01.7,0668.7,30.9
2021-08-06T06:06:00Z,00000200,00000000,0005.59,0004.03,0002.56,-000.04,0000.50,0000.60,0001.67,0001.30,0001.03,18.2,24.7,02.6,01.7,0668.7,30.9
2021-08-06T06:07:00Z,00000200,00000000,0005.78,0003.95,0002.80,0000.41,0000.61,0000.13,0001.26,0001.55,0001.00,18.1,24.7,02.6,01.8,0668.7,30.9
2021-08-06T06:08:00Z,00000200,00000000,0006.35,0004.19,0002.94,0000.49,0000.76,0000.63,0001.67,0001.22,0000.94,18.1,24.6,02.7,01.8,0668.7,30.9
2021-08-06T06:09:00Z,00000200,00000000,0006.27,0004.00,0002.71,0000.37,0000.76,0000.87,0001.36,0001.62,0001.21,18.1,24.6,02.9,01.9,0668.7,30.9
2021-08-06T06:10:00Z,00000200,00000000,0006.18,0003.79,0002.84,0000.65,0000.48,0000.57,0001.46,0001.04,0001.02,18.2,24.7,02.8,01.9,0668.7,30.9
2021-08-06T06:11:00Z,00000200,00000000,0006.38,0004.35,0002.96,0000.88,0000.42,0000.65,0001.10,0001.20,0001.13,18.4,24.7,02.8,01.9,0668.7,31.0
2021-08-06T06:12:00Z,00000200,00000000,0006.82,0004.21,0002.80,0000.32,0000.69,0000.34,0001.59,0001.48,0000.71,18.4,24.7,02.8,01.9,0668.7,31.0
2021-08-06T06:13:00Z,00000200,00000000,0006.08,0004.45,0002.56,0000.72,0000.52,0000.45,0001.55,0001.21,0001.32,18.5,24.8,02.9,02.0,0668.7,31.0
2021-08-06T06:14:00Z,00000200,00000000,0005.94,0004.18,0002.57,0000.55,0000.63,0000.30,0001.41,0001.65,0000.83,18.5,24.8,02.9,02.0,0668.7,31.0
2021-08-06T06:15:00Z,00000200,00000000,0005.92,0003.86,0002.30,0000.30,0000.83,0000.11,0001.24,0000.50,0001.14,18.5,24.8,02.9,02.0,0668.7,31.0
2021-08-06T06:16:00Z,00000200,00000000,0006.23,0003.89,0002.77,0000.13,0000.42,0000.43,0001.34,0001.51,0000.55,18.5,24.7,02.9,02.0,0668.7,30.9
2021-08-06T06:17:00Z,00000200,00000000,0006.34,0004.18,0002.63,0000.73,0000.31,0000.36,0001.38,0001.15,0000.60,18.4,24.7,02.9,02.0,0668.7,31.0
2021-08-06T06:18:00Z,00000200,00000000,0005.79,0004.03,0002.38,0000.23,0000.62,0000.26,0001.30,0001.25,0001.41,18.3,24.7,02.8,01.9,0668.7,30.9
2021-08-06T06:19:00Z,00000200,00000000,0006.28,0004.14,0002.70,0000.36,0000.58,0000.42,0001.34,0001.31,0000.75,18.3,24.7,02.9,01.9,0668.7,30.9
2021-08-06T06:20:00Z,00000200,00000000,0006.68,0004.63,0002.52,0000.54,0000.69,0000.64,0001.64,0001.33,0000.79,18.3,24.7,02.9,02.0,0668.7,30.9
2021-08-06T06:21:00Z,00000200,00000000,0007.07,0003.99,0002.93,0000.29,0000.49,0000.77,0001.24,0001.17,0001.55,18.2,24.6,03.0,02.0,0668.7,30.9
2021-08-06T06:22:00Z,00000200,00000000,0006.91,0004.37,0002.50,0000.82,0000.59,0000.39,0001.19,0001.52,0000.69,18.2,24.6,03.0,02.0,0668.7,30.9
2021-08-06T06:23:00Z,00000200,00000000,0006.53,0003.90,0002.44,0000.29,0000.44,0000.49,0001.92,0001.39,0001.41,18.2,24.6,03.0,02.0,0668.7,30.9
2021-08-06T06:24:00Z,00000200,00000000,0005.82,0004.12,0002.47,0000.40,0000.51,0000.44,0001.57,0001.53,0000.88,18.2,24.6,03.0,02.0,0668.7,30.9
2021-08-06T06:25:00Z,00000200,00000000,0006.75,0003.90,0002.56,0000.53,0000.35,0000.31,0001.60,0001.36,0001.29,18.3,24.6,03.1,02.1,0668.7,30.9
2021-08-06T06:26:00Z,00000200,00000000,0006.50,0004.13,0002.28,0000.36,0000.25,0000.58,0001.07,0001.11,0001.11,18.4,24.7,03.0,02.1,0668.7,31.0
2021-08-06T06:27:00Z,00000200,00000000,0006.29,0004.32,0002.42,0000.84,0000.37,0000.35,0001.56,0001.25,0000.78,18.5,24.7,03.1,02.1,0668.7,31.0
2021-08-06T06:28:00Z,00000200,00000000,0006.50,0004.15,0002.53,0000.70,0000.72,0000.47,0001.21,0001.40,0000.90,18.5,24.7,03.1,02.1,0668.7,31.0
2021-08-06T06:29:00Z,00000200,00000000,0005.89,0004.16,0002.61,-000.03,0000.27,0000.40,0001.22,0000.72,0000.41,18.4,24.7,03.0,02.1,0668.7,30.9
2021-08-06T06:30:00Z,00000200,00000000,0005.99,0004.12,0002.50,0000.72,0000.51,0000.64,0001.36,0001.12,0001.24,18.4,24.7,03.1,02.1,0668.7,31.0
2021-08-06T06:31:00Z,00000200,00000000,0005.54,0004.44,0002.58,0000.35,0000.61,0000.62,0001.26,0001.14,0001.03,18.4,24.7,03.1,02.1,0668.7,30.9
2021-08-06T06:32:00Z,00000200,00000000,0005.94,0004.10,0002.81,0000.46,0000.65,0000.66,0001.27,0001.12,0000.77,18.3,24.7,03.0,02.0,0668.7,30.9
2021-08-06T06:33:00Z,00000200,00000000,0006.45,0004.22,0002.67,0000.13,0000.34,0000.64,0001.39,0001.51,0000.91,18.3,24.6,03.1,02.1,0668.7,30.9
2021-08-06T06:34:00Z,00000200,00000000,0005.64,0004.18,0002.86,0001.19,0000.57,0000.63,0001.10,0001.15,0000.55,18.2,24.6,02.9,02.0,0668.7,30.9
2021-08-06T06:35:00Z,00000200,00000000,0006.75,0004.25,0002.82,0001.13,0000.40,0000.58,0001.38,0000.96,0001.34,18.2,24.6,02.9,02.0,0668.7,30.9
2021-08-06T06:36:00Z,00000200,00000000,0005.68,0004.31,0002.53,0000.61,0000.33,0000.64,0001.87,0001.86,0001.04,18.2,24.6,03.0,02.1,0668.7,30.9
2021-08-06T06:37:00Z,00000200,00000000,0006.04,0003.76,0002.74,0000.39,0000.45,0000.69,0001.37,0001.06,0000.80,18.1,24.6,03.1,02.1,0668.6,30.9
2021-08-06T06:38:00Z,00000200,00000000,0005.51,0003.94,0002.94,0000.09,0000.30,0000.44,0001.73,0001.82,0001.27,18.1,24.5,03.0,02.0,0668.6,30.9
2021-08-06T06:39:00Z,00000200,00000000,0005.63,0003.81,0002.57,0000.66,0000.69,0000.14,0001.20,0001.41,0001.06,18.1,24.5,03.2,02.2,0668.6,30.9
2021-08-06T06:40:00Z,00000200,00000000,0006.35,0004.20,0002.47,0000.71,0000.49,0000.58,0001.38,0001.08,0001.00,18.2,24.6,03.2,02.1,0668.6,30.9
2021-08-06T06:41:00Z,00000200,00000000,0006.45,0004.11,0002.33,0000.30,0000.34,0000.09,0001.59,0000.85,0001.20,18.3,24.6,03.1,02.1,0668.6,31.0
2021-08-06T06:42:00Z,00000200,00000000,0006.42,0004.03,0002.67,0000.54,0000.26,0000.50,0001.61,0001.52,0001.02,18.4,24.7,03.1,02.1,0668.6,31.0
2021-08-06T06:43:00Z,00000200,00000000,0005.56,0004.11,0002.36,0000.28,0000.60,0000.44,0000.88,0001.28,0000.79,18.4,24.7,03.1,02.1,0668.6,30.9
2021-08-06T06:44:00Z,00000200,00000000,0005.48,0003.95,0002.42,0000.66,0000.33,0000.50,0001.65,0001.46,0000.99,18.4,24.7,03.1,02.1,0668.6,30.9
2021-08-06T06:45:00Z,00000200,00000000,0006.46,0004.40,0002.49,0000.17,0000.97,0000.54,0001.38,0000.93,0000.68,18.4,24.6,03.2,02.2,0668.6,30.9
2021-08-06T06:46:00Z,00000200,00000000,0006.36,0004.05,0002.62,0000.63,0000.69,0000.43,0001.01,0001.32,0001.14,18.3,24.6,03.1,02.1,0668.6,30.9
2021-08-06T06:47:00Z,00000200,00000000,0006.28,0003.72,0002.50,0000.72,0000.75,0000.30,0001.56,0001.38,0001.07,18.3,24.6,03.2,02.2,0668.6,30.9
2021-08-06T06:48:00Z,00000200,00000000,0005.12,0003.78,0002.88,0000.00,0000.33,0000.75,0001.48,0001.48,0000.89,18.3,24.6,03.1,02.1,0668.6,30.9
2021-08-06T06:49:00Z,00000200,00000000,0005.65,0003.92,0002.75,0000.78,0000.32,0000.66,0001.21,0000.93,0000.97,18.2,24.6,03.2,02.2,0668.6,30.9
2021-08-06T06:50:00Z,00000200,00000000,0006.23,0003.83,0002.82,0000.58,0000.57,0000.32,0001.12,0001.15,0000.89,18.2,24.6,03.2,02.2,0668.6,30.9
2021-08-06T06:51:00Z,00000200,00000000,0005.79,0003.84,0002.84,0000.77,0000.76,0000.53,0001.39,0001.08,0000.70,18.2,24.6,03.2,02.2,0668.6,30.9
2021-08-06T06:52:00Z,00000200,00000000,0006.56,0003.90,0002.44,0000.26,0000.58,0000.29,0001.30,0001.61,0000.75,18.1,24.5,03.2,02.2,0668.6,30.9
2021-08-06T06:53:00Z,00000200,00000000,0006.66,0003.93,0002.49,0000.65,0000.64,0000.37,0001.71,0001.30,0001.17,18.1,24.5,03.3,02.2,0668.6,30.9
2021-08-06T06:54:00Z,00000200,00000000,0005.86,0003.79,0002.26,0000.56,0000.44,0000.46,0001.46,0001.45,0001.35,18.1,24.5,03.2,02.2,0668.6,30.9
2021-08-06T06:55:00Z,00000200,00000000,0005.18,0003.88,0002.26,0000.41,0000.42,0000.35,0001.53,0001.16,0001.09,18.2,24.5,03.2,02.2,0668.6,30.9
2021-08-06T06:56:00Z,00000200,00000000,0006.07,0003.60,0002.34,0000.73,0000.44,0000.26,0000.93,0001.03,0000.78,18.3,24.6,03.3,02.2,0668.5,30.9
2021-08-06T06:57:00Z,00000200,40000000,,,,,,,0000.23,-000.04,0000.24,18.3,24.6,03.8,02.6,0668.5,30.9
2021-08-06T06:58:00Z,00000200,60000000,,,,,,,0000.22,-000.05,-000.35,18.0,24.7,03.1,02.0,0667.6,30.9
2021-08-06T06:59:00Z,00000200,20000000,,,,,,,0000.15,0000.10,0000.12,18.0,24.8,03.0,02.0,0667.5,30.9
